Home   Weather   Lagos   Past weeks

Flag for Nigeria Past Weather in Lagos, Nigeria — Yesterday and Last 2 Weeks

Now
84 °F

Passing clouds.


Feels Like: 94 °F
Forecast: 76 / 94 °F
Wind: 2 mph from North

Location: Lagos / Ikeja

Current Time: Dec 5, 2016 at 7:54:25 pm

Latest Report: Dec 5, 2016 at 7:00 pm


Visibility: 4 mi

Pressure: 29.89 "Hg

Humidity: 79%

Dew Point: 77 °F

Location of LagosLocation

Past Weather in Lagos — Graph

°F

Lagos Temperature Yesterday

Maximum temperature yesterday: 93 °F (at 1:00 pm)
Minimum temperature yesterday: 79 °F (at 5:00 am)
Average temperature yesterday: 85 °F

High & Low Weather Summary for the Past Weeks

 TemperatureHumidityPressure
High95 °F (Dec 2, 2:00 pm)100% (Nov 23, 8:00 am)29.98 "Hg (Nov 23, 8:00 am)
Low72 °F (Nov 28, 3:00 pm)59% (Nov 27, 3:00 pm)29.77 "Hg (Nov 26, 5:00 pm)
Average83 °F85%29.88 "Hg
* Reported Nov 20 10:00 pm — Dec 5 6:00 pm, Lagos, Weather by CustomWeather, © 2016

Note: Actual official high and low records may vary slightly from our data, if they occured in-between our weather recording intervals... More about our weather records

Advertising

Lagos Weather History for the Previous 24 Hours

Scroll right to see more
 ConditionsComfort  
Time TempWeatherWind HumidityBarometerVisibility
6:00 pm
Mon, Dec 5
86 °FPassing clouds.5 mph70%29.89 "Hg4 mi
5:00 pm88 °FScattered clouds.5 mph66%29.86 "Hg4 mi
4:00 pm91 °FPartly sunny.6 mph63%29.86 "Hg4 mi
3:00 pm93 °FScattered clouds.2 mph59%29.86 "Hg5 mi
2:00 pm90 °FScattered clouds.5 mph67%29.89 "Hg5 mi
1:00 pm86 °FPassing clouds.5 mph79%29.92 "Hg4 mi
12:00 pm84 °FPassing clouds.6 mph84%29.98 "Hg4 mi
11:00 am81 °FPassing clouds.2 mph94%29.98 "Hg3 mi
10:00 am81 °FHaze.2 mph94%29.98 "Hg1 mi
9:00 am81 °FScattered clouds.2 mph94%29.98 "Hg2 mi
8:00 am79 °FThunderstorms. Passing clouds.3 mph100%29.95 "Hg4 mi
7:00 am79 °FThunderstorms. Passing clouds.2 mph94%29.92 "Hg4 mi
6:00 am79 °FPassing clouds.3 mph94%29.89 "Hg5 mi
4:00 am81 °FPassing clouds.No wind89%29.89 "Hg5 mi
3:00 am81 °FPassing clouds.No wind94%29.89 "Hg5 mi
2:00 am81 °FPassing clouds.2 mph94%29.92 "Hg5 mi
1:00 am81 °FPassing clouds.2 mph94%29.92 "Hg5 mi
12:00 am82 °FPassing clouds.2 mph89%29.92 "Hg5 mi
11:00 pm
Sun, Dec 4
82 °FPassing clouds.2 mph89%29.95 "Hg5 mi
10:00 pm82 °FPassing clouds.2 mph89%29.95 "Hg5 mi
9:00 pm82 °FPassing clouds.3 mph89%29.92 "Hg5 mi
8:00 pm84 °FPassing clouds.6 mph84%29.89 "Hg5 mi
7:00 pm84 °FPassing clouds.3 mph84%29.86 "Hg5 mi
Weather by CustomWeather, © 2016

See weather overviewHow to use our weather pages